Theta_e
327 327 327 323 321 321 319 318 318 316 313 312 310 305 301 297 294 292 292 291 291 293 296 299 298 293 290 289 289 288 287 286 285 286 287 287 286 287 287 287 286 286 285
325 325 323 321 319 315 314 314 312 309 305 303 299 296 294 292 292 292 292 293 296 299 298 294 292 291 288 288 287 287 286 286 285 284 285 285 285 285 285 284 284 284 284
306 307 305 302 302 299 297 295 295 296 294 293 292 291 291 294 295 295 297 297 296 295 292 290 288 288 288 288 287 286 286 285 285 284 283 284 284 284 284 284 283 283 283
299 298 297 298 299 298 298 298 298 295 294 293 293 295 296 294 294 293 292 291 289 288 287 288 288 287 287 286 286 286 286 285 285 284 283 283 283 283 283 282 282 283 283
295 294 293 293 294 293 293 294 294 295 294 294 293 293 292 292 290 290 289 287 287 287 287 286 286 286 287 288 287 286 285 284 284 283 283 283 283 283 282 283 282 282 282
293 292 294 294 294 292 292 292 292 292 292 292 291 291 291 288 288 288 287 287 288 289 289 288 287 286 286 286 286 286 286 286 285 284 283 283 283 284 283 282 282 282 282
291 291 293 294 292 292 292 292 291 290 290 289 289 288 286 286 286 286 286 286 286 285 284 284 284 284 284 284 284 285 285 285 285 285 285 285 285 285 284 284 283 282 282
287 288 289 289 289 289 290 288 288 288 286 285 285 285 285 285 285 284 283 283 283 283 283 283 283 283 283 284 284 284 284 284 284 284 284 283 283 283 283 283 283 283 283
283 283 285 285 285 286 285 284 284 284 283 283 283 283 282 281 281 281 280 280 280 280 281 281 281 281 281 281 281 282 282 283 283 283 284 284 284 284 285 285 285 285 285
280 281 281 282 282 282 282 282 282 282 282 281 279 278 277 277 279 279 278 278 278 278 278 278 277 277 278 279 279 280 280 280 281 281 282 282 282 282 283 283 283 284 284
278 278 279 279 278 278 279 278 277 277 277 276 276 275 274 275 276 277 277 276 276 275 275 275 274 275 276 276 276 275 276 276 274 275 275 276 278 280 281 281 282 282 282
276 276 276 276 276 276 275 275 275 274 274 274 273 273 273 274 275 275 275 275 274 273 273 272 272 273 272 272 271 272 272 270 270 270 270 271 272 273 273 273 274 275 280
274 274 274 274 274 275 274 274 273 273 273 272 271 271 272 273 273 273 273 273 272 271 271 269 270 269 269 268 268 268 267 267 267 267 268 269 269 268 268 269 270 271 274
272 272 271 272 273 273 273 273 273 273 272 272 270 270 271 272 272 272 272 271 269 270 268 266 266 266 266 266 265 265 265 265 265 265 266 265 265 266 266 266 268 270 272
271 270 270 270 270 271 271 272 272 272 272 272 271 270 270 272 271 272 272 270 269 268 265 264 263 263 263 263 263 263 263 263 263 263 263 263 264 264 264 265 267 269 269
269 269 268 268 268 268 269 269 269 270 270 270 271 270 269 271 270 270 270 268 267 266 263 262 262 262 262 262 262 262 262 262 262 262 262 262 262 262 263 264 266 269 269
268 268 268 268 268 267 267 266 266 268 267 267 268 268 268 269 269 268 268 265 264 263 261 261 261 260 260 260 260 260 260 261 261 261 261 261 261 261 263 264 267 268 268
268 268 267 267 267 267 266 266 265 265 265 266 267 266 265 267 267 266 265 265 264 263 261 260 259 259 259 259 259 259 259 260 260 260 260 260 261 261 262 264 267 267 266
268 268 268 267 267 266 266 265 264 264 263 263 265 267 266 265 265 263 262 260 260 259 259 259 259 258 258 258 258 258 258 258 259 260 260 260 261 261 263 265 265 265 264
267 267 267 267 267 267 267 266 266 265 265 264 264 263 264 265 264 264 262 260 259 259 258 258 257 257 257 257 257 257 258 259 259 260 260 260 261 261 263 263 262 262 261
269 270 270 270 269 268 267 266 265 265 265 265 264 264 264 263 261 260 259 259 258 258 258 257 257 257 257 257 257 257 258 258 259 260 260 260 261 261 261 261 261 260 260
270 269 269 268 267 267 267 266 265 264 264 263 263 263 262 261 261 259 258 258 257 257 257 257 256 256 256 256 256 257 257 259 259 260 260 260 260 260 260 260 259 259 259
269 268 268 267 266 266 265 265 265 264 263 263 262 262 261 260 259 259 258 258 257 257 257 256 256 256 257 256 257 257 258 259 260 260 260 259 259 259 259 259 259 258 258
268 267 267 267 266 266 265 265 264 263 263 262 262 261 260 259 258 258 258 257 256 256 256 256 256 256 256 257 258 260 261 261 261 261 260 259 259 260 259 259 258 259 258
268 267 267 266 266 265 264 264 263 263 262 261 260 259 259 258 257 257 256 256 255 255 255 256 257 257 257 258 259 261 263 262 263 262 261 260 260 260 259 259 259 259 258
267 267 267 266 265 265 264 263 262 261 260 259 259 258 257 257 256 255 255 255 254 254 255 256 257 258 259 259 260 262 263 264 263 262 261 261 261 260 260 260 260 260 259
Wind_Speed
26 26 27 29 31 34 38 37 36 35 36 35 36 34 30 27 22 19 19 16 13 12 9 8 5 3 5 12 13 15 15 15 8 16 25 30 27 28 31 31 33 35 36
14 17 15 19 19 21 28 31 30 27 25 25 26 26 26 23 19 17 16 14 12 10 7 4 4 8 12 13 16 17 19 20 18 18 25 32 31 31 33 33 37 39 41
17 16 15 15 12 13 14 15 13 14 13 13 12 11 10 11 10 9 5 4 1 2 5 6 8 12 15 17 19 21 23 25 28 26 26 28 32 35 38 38 41 42 44
34 33 31 27 23 19 17 16 16 15 17 19 17 12 9 8 11 10 10 9 9 9 8 10 12 15 16 20 23 25 26 29 31 28 28 27 26 31 32 34 32 32 39
37 36 32 32 32 29 29 29 27 27 22 18 18 17 15 17 17 14 13 11 12 11 11 14 17 18 18 20 24 29 28 26 23 24 26 25 25 23 24 25 29 33 33
37 36 38 39 36 33 31 32 29 26 23 22 21 19 18 20 17 15 13 11 11 13 16 18 19 21 22 23 24 23 24 27 26 25 26 25 30 28 28 27 28 27 13
37 33 36 35 31 31 31 29 28 27 25 26 24 24 25 25 23 21 18 16 17 17 18 19 20 21 23 25 26 25 24 24 25 31 33 33 36 33 32 33 31 31 34
38 36 28 32 35 32 31 30 28 29 30 30 29 29 34 31 29 25 21 21 22 23 23 23 23 23 24 26 28 26 26 26 29 30 32 36 35 35 33 36 38 39 43
34 33 31 34 35 35 32 30 30 33 32 32 33 32 30 34 30 31 27 24 23 22 20 21 22 23 27 29 32 30 30 29 29 32 35 38 40 41 39 39 35 30 22
28 30 32 33 34 32 30 30 30 30 28 28 30 31 30 31 32 31 28 24 23 22 20 21 23 27 30 30 30 30 30 33 36 38 36 36 36 37 35 34 38 33 30
30 35 35 33 35 34 34 32 32 31 31 28 28 27 29 29 28 29 29 26 25 22 21 26 29 30 29 28 27 27 32 36 36 33 34 34 33 33 32 31 33 37 35
35 38 36 36 33 33 34 33 33 30 28 26 24 24 25 26 27 29 28 27 26 22 22 24 25 26 26 25 26 28 31 32 31 33 32 32 33 33 34 40 43 43 43
38 37 35 35 33 32 34 32 32 29 27 26 25 24 24 26 27 28 27 26 25 22 22 24 22 23 24 23 25 27 28 27 29 29 31 32 32 39 43 40 40 39 40
36 34 35 36 34 33 30 29 28 27 24 22 22 21 20 23 27 28 28 27 26 24 28 28 21 20 20 22 24 24 24 24 26 27 29 33 36 34 37 37 37 37 30
38 37 36 35 33 31 29 26 24 26 25 22 23 23 22 22 27 25 26 27 25 25 26 23 21 21 21 22 22 22 23 23 24 27 29 31 33 34 35 37 35 37 20
34 32 29 30 30 30 29 27 20 18 21 20 17 20 19 17 23 24 25 24 22 23 22 20 21 23 24 26 28 30 29 30 31 33 33 33 35 35 36 38 37 21 18
33 31 30 30 29 29 29 29 25 25 12 19 19 19 22 21 25 26 27 25 22 29 26 27 27 28 29 30 32 33 35 35 36 35 35 36 36 37 35 34 31 29 23
29 29 28 27 27 27 26 25 25 25 27 32 30 22 26 25 28 29 31 38 44 41 34 28 27 28 29 30 32 34 36 38 37 37 37 36 35 33 33 32 27 27 23
27 26 25 24 24 25 25 24 25 25 26 28 37 36 40 32 30 29 29 34 30 30 31 30 31 31 31 31 31 32 32 34 35 35 34 34 35 32 30 28 28 24 13
24 24 25 26 27 29 30 31 32 33 34 35 35 37 39 41 45 42 38 36 33 30 30 27 28 26 27 27 29 31 32 33 33 33 33 33 32 31 28 25 19 15 13
24 24 25 25 27 26 25 27 27 28 30 31 32 32 26 28 32 32 33 32 29 29 30 30 30 30 29 29 30 30 31 32 32 32 32 31 31 25 21 19 17 14 14
20 20 20 21 21 23 23 23 24 25 25 27 31 33 29 30 31 30 31 30 28 27 27 28 29 29 29 29 29 30 30 31 31 30 30 29 24 23 21 17 15 15 16
15 16 17 18 19 20 22 23 25 26 28 29 31 32 32 32 31 32 32 31 29 28 27 28 29 32 29 29 30 29 30 32 34 28 27 25 23 20 16 15 16 18 17
12 14 15 17 20 22 25 27 29 30 31 32 33 33 33 33 33 33 32 30 30 28 27 28 30 29 29 29 29 27 28 35 30 26 20 18 16 14 13 15 17 17 18
12 14 17 21 24 26 28 31 32 33 33 33 32 33 34 33 32 32 31 31 30 29 30 30 29 28 28 27 25 23 26 35 20 20 16 12 11 11 12 15 18 20 22
14 17 21 23 26 29 31 32 33 33 33 33 32 32 31 30 28 27 28 28 30 33 30 28 27 26 25 25 22 20 24 21 20 14 12 9 9 10 13 16 18 22 22
Wind_Direction
203 210 216 213 209 214 217 220 222 222 221 218 213 209 205 200 193 190 180 176 176 176 193 222 233 263 288 265 273 271 269 259 246 269 276 280 279 275 272 271 271 270 273
204 207 202 207 210 206 205 212 214 212 209 208 204 198 189 179 171 176 170 187 189 206 208 250 284 297 278 283 280 280 279 276 266 269 276 281 281 282 279 276 273 274 275
82 92 84 74 92 90 94 92 114 137 144 128 128 129 131 136 144 156 155 173 156 316 307 326 306 293 293 294 293 290 290 288 282 268 274 278 279 283 283 282 278 277 277
71 67 65 68 70 67 73 81 87 87 93 102 106 111 109 83 90 71 49 24 3 0 338 315 308 301 304 302 302 299 297 290 285 277 274 277 275 277 278 276 279 276 273
74 72 69 73 80 81 88 90 94 94 92 90 90 85 78 67 48 48 43 16 354 344 344 340 335 324 315 309 305 300 297 284 279 275 278 282 276 277 269 280 275 281 277
72 76 80 77 79 80 76 75 75 79 80 78 74 70 59 49 38 29 23 11 357 349 342 336 336 335 329 323 317 306 291 284 283 279 282 282 284 285 286 279 278 284 287
66 69 77 82 81 79 80 80 77 75 71 67 62 61 57 45 40 35 29 26 19 13 7 360 353 348 344 338 333 322 312 305 287 286 285 282 286 285 288 285 280 279 276
60 59 61 76 76 75 74 71 72 74 71 67 65 64 61 50 42 39 40 39 32 25 16 10 4 358 355 342 334 328 320 314 307 299 286 283 280 283 279 277 277 276 276
52 57 61 68 72 72 67 66 70 74 71 68 66 64 56 45 34 31 32 30 24 19 11 8 3 355 347 340 335 326 319 315 311 304 298 294 294 293 290 287 281 282 282
54 60 63 66 67 67 68 65 68 68 67 63 59 56 50 45 34 32 27 26 17 9 6 2 359 354 346 344 339 334 328 325 323 320 310 304 300 297 293 283 279 278 280
62 68 67 64 66 68 70 66 66 66 66 59 57 51 48 42 33 29 27 26 15 5 4 356 350 352 349 348 346 345 333 329 329 326 323 320 320 318 310 299 284 265 270
71 67 63 61 60 62 64 60 60 57 54 50 48 45 37 33 28 24 22 20 14 10 360 349 347 349 350 350 348 342 338 337 335 332 329 325 322 320 320 316 314 307 285
70 67 66 66 59 57 55 53 51 48 47 41 38 33 25 23 19 15 13 10 9 4 356 350 351 350 349 349 348 345 343 341 335 330 325 320 323 317 313 314 310 306 301
67 62 62 62 62 59 55 52 51 46 44 42 35 25 18 18 13 8 5 1 2 358 346 357 351 351 354 350 346 345 341 335 329 322 319 314 313 315 315 315 312 309 303
68 65 63 64 65 64 62 52 53 50 44 39 35 27 13 12 5 1 360 357 355 350 345 356 354 355 351 348 345 340 337 335 331 325 321 319 320 319 317 316 312 310 293
69 67 67 66 63 60 59 57 53 49 43 40 35 29 17 9 1 360 357 353 356 353 2 0 356 354 351 347 346 344 343 339 336 332 329 327 325 323 319 319 316 310 308
75 70 66 62 58 53 48 40 30 38 32 26 24 18 14 3 360 0 357 355 1 0 10 2 356 352 347 347 344 340 335 333 332 330 327 326 324 321 320 317 315 326 311
71 67 63 58 54 50 45 40 34 27 15 10 17 7 5 3 359 360 358 355 360 360 0 352 345 341 339 338 335 333 329 328 328 325 322 320 318 316 315 315 321 319 307
67 63 60 55 49 44 38 32 25 19 12 5 5 3 4 359 356 357 358 360 351 347 345 341 338 334 331 329 325 321 318 315 316 317 317 317 317 317 314 322 316 318 325
61 54 48 42 37 32 27 22 16 11 7 2 359 356 356 350 350 346 345 343 340 335 332 328 325 321 319 319 319 317 315 316 317 318 319 319 317 317 316 320 331 339 344
49 45 39 35 30 24 18 13 7 1 356 349 345 346 342 333 331 332 332 332 329 327 325 324 321 318 318 317 316 314 313 313 316 318 323 323 324 328 336 339 344 351 357
43 37 32 26 19 13 8 1 354 346 338 332 332 334 333 329 329 327 328 329 326 323 323 321 315 314 315 318 315 313 313 313 317 321 325 327 332 339 344 351 360 7 8
36 28 21 14 4 357 351 347 339 334 329 328 328 326 327 327 328 328 328 329 329 325 325 324 321 322 329 327 327 326 317 315 321 321 330 330 338 347 355 5 11 10 3
22 12 3 356 351 345 339 333 331 331 331 329 329 329 329 330 329 329 329 329 329 327 325 327 326 327 330 331 334 334 337 337 324 331 339 340 347 359 11 17 17 16 14
2 354 350 346 341 336 332 331 331 331 330 330 330 331 331 329 326 325 327 329 331 331 328 327 331 334 333 335 338 341 346 340 334 347 354 360 10 17 27 32 29 29 27
346 347 344 338 335 334 333 332 330 331 332 333 329 327 326 324 321 318 318 320 327 329 328 330 335 337 338 341 345 350 353 352 347 359 10 20 26 32 36 38 34 37 36